User: anonymous   Login
Location: Newark
(40.4667°N, 5.6000°W)
Time: 06:06:14
(UTC+00:00)
Language:

Vanguard 2 - Orbit

View from above orbital plane
View from above orbital plane
View from above satellite
View from above satellite

Ground track
Ground track

The orbit data is extracted from the following two-line orbital elements,

1    11U 59001A   19322.83605869 +.00000144 +00000-0 +73491-4 0  9996
2    11 032.8640 129.8982 1466830 136.8844 235.6464 11.85627524249857
Epoch (UTC): 18 November 2019 20:03:55
Eccentricity: 0.1466830
inclination: 32.8640°
perigee height: 554 km
apogee height: 2937 km
right ascension of ascending node: 129.8982°
argument of perigee: 136.8844°
revolutions per day: 11.85627524
mean anomaly at epoch: 235.6464°
orbit number at epoch: 24985

The dashed part of the orbit path shows where the satellite is in the earth's shadow,  

DLR